Regional Weather Roundup
Issued by NWS

Home | Current Version | Previous Version | Text Only | Print | Product List | Glossary On
Versions: 1 2 3 4 5 6 7 8 9 10 11 12 13 14 15 16 17 18 19 20 21 22 23 24 25 26 27 28 29 30 31 32 33 34 35 36 37 38 39 40 41 42 43 44 45 46 47 48 49 50
000
ASUS43 KLOT 220902
RWRIL

ILLINOIS REGIONAL WEATHER ROUNDUP
NATIONAL WEATHER SERVICE CHICAGO/ROMEOVILLE IL
400 AM CDT FRI MAY 22 2015

NOTE: "FAIR" INDICATES FEW OR NO CLOUDS BELOW 12,000 FEET WITH NO
SIGNIFICANT WEATHER AND/OR OBSTRUCTIONS TO VISIBILITY.

* THESE STATIONS ARE NOT UNDER NWS QUALITY CONTROL. THEY ALSO MAY NOT
  REPORT WEATHER SUCH AS PRECIPITATION OR FOG.

ILZ001-002-007-009-015-016-024-221000-
NORTHWEST ILLINOIS

CITY           SKY/WX    TMP DP  RH WIND       PRES   REMARKS
MOLINE         CLEAR     47  41  80 W5        30.10R
STERLING*      CLEAR     48  41  76 W5        30.09R
$$

ILZ003-004-008-010-011-017-018-221000-
NORTH CENTRAL ILLINOIS

CITY           SKY/WX    TMP DP  RH WIND       PRES   REMARKS
ROCKFORD       CLEAR     49  42  77 NE7       30.12R
FREEPORT*      CLEAR     49  41  72 N3        30.11R
$$

ILZ005-006-012>014-019>023-221000-
NORTHEAST ILLINOIS

CITY           SKY/WX    TMP DP  RH WIND       PRES   REMARKS
CHICAGO-OHARE  CLEAR     49  40  71 N9        30.08R
CHICAGO-MIDWAY CLEAR     55  43  63 W3        30.07R
AURORA         CLEAR     47  40  76 N6        30.07R
WAUKEGAN       CLEAR     45  38  76 N5        30.09R
DUPAGE AIRPORT CLEAR     47  41  80 N3        30.07R
WHEELING       CLEAR     47  39  74 N6        30.10R
NORTHERLY ISL    N/A     50  43  77 N12         N/A
$$

LMZ740>746-221000-
SOUTHERN LAKE MICHIGAN

STATION/POSITION SKY/WX   TEMP    WIND        PRES    VSBY  WAVE
                          AIR SEA DIR/SP/G                  HT/PER
                          (F)     (DEG/KT/KT) (MB)    (MI)  (FT/S)
SOUTHERN BUOY              42 38   10/  8/ 10 1019.6R         0
HARRISON CRIB              54     120/  4/  4   N/A
BURNHAM HARBOR             57     260/  3/  9   N/A
CALUMET HARBOR             56     350/  3/  4   N/A
BURNS HARBOR               58     200/  4/  5 1018.3S
MICHIGAN CITY              55     160/  3/  4   N/A
MICHIGAN CITY 6N           53 51  210/  6/  6   N/A           1
ST. JOSEPH                 54 53   40/  6/  8   N/A           1/ 2
$$

ILZ025>027-034>036-040-047-049-050-058-095>099-221000-
WEST-CENTRAL ILLINOIS

CITY           SKY/WX    TMP DP  RH WIND       PRES   REMARKS
QUINCY         CLEAR     52  45  77 W8        30.16S
MACOMB*        CLEAR     53  47  79 W10       30.15R
$$

ILZ028>032-037-038-041>044-048-051>054-059>061-221000-
CENTRAL ILLINOIS

CITY           SKY/WX    TMP DP  RH WIND       PRES   REMARKS
DECATUR        CLEAR     54  45  71 SW9       30.14R
PEORIA         CLEAR     56  46  69 W6        30.11R
LINCOLN*       CLEAR     57  46  64 W8        30.11R
SPRINGFIELD    CLEAR     55  45  68 W9        30.14R
TAYLORVILLE    NOT AVBL
$$

ILZ033-039-045-046-055>057-062-063-221000-
EAST-CENTRAL ILLINOIS

CITY           SKY/WX    TMP DP  RH WIND       PRES   REMARKS
CHAMPAIGN      CLEAR     49  44  83 SW7       30.12S
MATTOON        CLEAR     52  42  69 SW10      30.14R
$$

ILZ079-100>102-221000-
SOUTHWEST ILLINOIS

CITY           SKY/WX    TMP DP  RH WIND       PRES   REMARKS
ALTON          CLEAR     49  49  97 SW3       30.19S
BELLEVILLE     CLEAR     47  45  93 SW5       30.19R
CAHOKIA*       CLEAR     49  43  80 CALM      30.20R
SPARTA*        CLEAR     48  43  83 SW6       30.22S
$$

ILZ064>066-069>071-074>076-080>082-084>086-088>090-092>094-221000-
SOUTH-CENTRAL ILLINOIS

CITY           SKY/WX    TMP DP  RH WIND       PRES   REMARKS
CARBONDALE     CLEAR     44  41  89 CALM      30.23R
MT. VERNON     CLEAR     41  36  81 CALM      30.21S
SALEM*         CLEAR     50  44  78 SW6       30.20R
$$

ILZ067-068-072-073-078-083-087-091-221000-
SOUTHEAST ILLINOIS

CITY           SKY/WX    TMP DP  RH WIND       PRES   REMARKS
LAWRENCEVILLE  CLEAR     47  42  83 SW3       30.19R
FLORA*         CLEAR     49  42  79 SW7       30.20R
HARRISBURG*    CLEAR     44  44 100 CALM      30.23R
ROBINSON*      CLEAR     51  42  73 SW12      30.18S
CARMI*         CLEAR     46  41  82 SW5       30.20S
$$

ABBREVIATIONS USED IN REMARKS
   TC - TEMPERATURE IN CELSIUS
  WCI - WIND CHILL INDEX
   HX - HEAT INDEX
  VSB - VISIBILITY
$$



USA.gov is the U.S. government's official web portal to all federal, state and local government web resources and services.